Back to catalog

TITAN 3C TRANSTAGE DEB

AliveVLEO
NORAD 1961·DEBRIS·🇺🇸 United States

Launched Oct 15, 1965 from Cape Canaveral Space Force Station

Loading…

Next Passes (next 24 hours)

TLE

FreshSource: Space-Track

Epoch: Sep 14, 2026, 14:37 UTC

1 01961U 65082GW  26257.60930165  .00005134  00000-0  24839-3 0  9992
2 01961  31.8551  68.8040 0002994  49.4560 310.6357 15.17199507257745

Track TITAN 3C TRANSTAGE DEB in real time with AllMySat

Download on the App Store